DW5310 Weather Reports


time (UTC)temp
C
wind
direction
speed
KPH
gust
KPH
rain 1hr
cm
rain 24hr
cm
rain mn
cm
humidity
%
barometer
mb
20260505184007 13 194 0.0 0.0 0.00 0.00 0.00 84 1015.5
20260505183506 13 125 0.0 0.0 0.00 0.00 0.00 83 1015.5
20260505182506 13 144 0.0 8.0 0.00 0.00 0.00 84 1015.5
20260505182006 13 192 0.0 3.2 0.00 0.00 0.00 84 1015.5
20260505181507 13 86 0.0 0.0 0.00 0.00 0.00 84 1015.5
20260505180506 13 202 0.0 9.7 0.00 0.00 0.00 84 1015.5
20260505180007 13 171 0.0 9.7 0.00 0.00 0.00 84 1015.5
20260505175506 13 169 0.0 8.0 0.00 0.00 0.00 84 1015.5
20260505175007 13 142 0.0 8.0 0.00 0.00 0.00 84 1015.5
20260505174506 13 159 0.0 0.0 0.00 0.00 0.00 84 1015.5
20260505174006 13 129 0.0 8.0 0.00 0.00 0.00 85 1015.5
20260505173507 13 168 0.0 8.0 0.00 0.00 0.00 85 1015.5
20260505173006 13 127 0.0 9.7 0.00 0.00 0.00 85 1015.5
20260505172507 12 168 0.0 9.7 0.00 0.00 0.00 85 1015.5
20260505172006 13 133 0.0 3.2 0.00 0.00 0.00 85 1015.5
20260505171506 13 151 0.0 3.2 0.00 0.00 0.00 85 1014.5
20260505171006 13 206 0.0 0.0 0.00 0.00 0.00 85 1014.5
20260505170506 13 238 0.0 0.0 0.00 0.00 0.00 86 1014.5
20260505170007 13 149 0.0 0.0 0.00 0.00 0.00 86 1015.5
20260505165506 12 185 0.0 3.2 0.00 0.00 0.00 86 1015.5
20260505165006 12 137 0.0 3.2 0.00 0.00 0.00 86 1015.5
20260505164506 12 140 0.0 0.0 0.00 0.00 0.00 87 1014.5
20260505164007 12 187 0.0 0.0 0.00 0.00 0.00 87 1014.5
20260505163506 12 156 0.0 3.2 0.00 0.00 0.00 87 1014.5
20260505163008 12 145 0.0 3.2 0.00 0.00 0.00 87 1014.5
20260505162506 12 204 1.6 3.2 0.00 0.00 0.00 87 1014.5
20260505162007 12 199 0.0 11.3 0.00 0.00 0.00 88 1014.5
20260505161507 12 162 0.0 11.3 0.00 0.00 0.00 88 1014.5
20260505161006 12 135 0.0 11.3 0.00 0.00 0.00 88 1014.5
20260505160506 12 179 0.0 8.0 0.00 0.00 0.00 88 1014.5
20260505153006 11 213 0.0 0.0 0.00 0.00 0.00 89 1014.5
20260505152506 11 170 0.0 0.0 0.00 0.00 0.00 89 1014.5
20260505152006 11 144 0.0 8.0 0.00 0.00 0.00 89 1014.5
20260505151506 11 179 1.6 8.0 0.00 0.00 0.00 89 1014.5
20260505150506 11 177 1.6 8.0 0.00 0.00 0.00 88 1014.5
20260505140506 11 192 0.0 8.0 0.00 0.00 0.00 89 1014.5
20260505124006 11 125 0.0 0.0 0.00 0.00 0.00 86 1014.5
20260505123506 11 125 0.0 0.0 0.00 0.00 0.00 86 1014.5
20260505122006 11 148 0.0 0.0 0.00 0.00 0.00 85 1014.5
20260505121006 11 138 0.0 0.0 0.00 0.00 0.00 86 1014.5
20260505120506 11 138 0.0 0.0 0.00 0.00 0.00 86 1014.5
20260505120006 11 138 0.0 0.0 0.00 0.00 0.00 86 1013.5
20260505115506 11 153 0.0 3.2 0.00 0.00 0.00 86 1013.5
20260505115006 11 192 0.0 4.8 0.00 0.00 0.00 86 1013.5
20260505114506 11 148 0.0 4.8 0.00 0.00 0.00 86 1014.5
20260505113506 11 192 0.0 0.0 0.00 0.00 0.00 86 1014.5
20260505113006 11 192 0.0 0.0 0.00 0.00 0.00 86 1014.5
20260505112506 11 215 0.0 0.0 0.00 0.00 0.00 85 1014.5
20260505112006 11 125 0.0 0.0 0.00 0.00 0.00 85 1014.5
20260505111506 11 305 0.0 0.0 0.00 0.00 0.00 85 1013.5
20260505111005 11 192 0.0 0.0 0.00 0.00 0.00 85 1013.5
20260505110506 11 137 0.0 0.0 0.00 0.00 0.00 85 1013.5
20260505102006 11 148 0.0 0.0 0.00 0.00 0.00 85 1013.5
20260505101506 11 148 0.0 0.0 0.00 0.00 0.00 85 1013.5
20260505101006 11 192 0.0 0.0 0.00 0.00 0.00 85 1013.5
20260505100505 11 238 0.0 0.0 0.00 0.00 0.00 85 1013.5
20260505100006 11 238 0.0 0.0 0.00 0.00 0.00 85 1013.5
20260505095505 11 238 0.0 0.0 0.00 0.00 0.00 85 1013.5
20260505095006 11 215 0.0 0.0 0.00 0.00 0.00 85 1013.5
20260505094505 11 170 0.0 11.3 0.00 0.00 0.00 84 1013.5
20260505094006 11 153 1.6 11.3 0.00 0.00 0.00 84 1013.5
20260505093505 11 153 0.0 11.3 0.00 0.00 0.00 84 1013.5
20260505093006 11 215 0.0 0.0 0.00 0.00 0.00 84 1012.5
20260505092505 11 215 0.0 0.0 0.00 0.00 0.00 84 1012.5
20260505092005 11 215 0.0 0.0 0.00 0.00 0.00 84 1012.5
20260505091505 11 215 0.0 0.0 0.00 0.00 0.00 83 1012.5
20260505091006 11 220 0.0 0.0 0.00 0.00 0.00 83 1012.5
20260505090506 11 215 0.0 0.0 0.00 0.00 0.00 83 1012.5
20260505090006 11 211 0.0 0.0 0.00 0.00 0.00 83 1012.5
20260505085505 11 238 0.0 0.0 0.00 0.00 0.00 82 1012.5
20260505085006 11 215 0.0 0.0 0.00 0.00 0.00 83 1012.5
20260505084005 12 238 0.0 8.0 0.00 0.00 0.00 82 1012.5
20260505083006 12 225 1.6 8.0 0.00 0.00 0.00 81 1012.5
20260505082506 12 219 0.0 8.0 0.00 0.00 0.00 81 1012.5
20260505082006 12 243 0.0 3.2 0.00 0.00 0.00 81 1012.5
20260505081505 12 215 0.0 3.2 0.00 0.00 0.00 80 1012.5
20260505081005 12 215 0.0 0.0 0.00 0.00 0.00 80 1012.5
20260505080506 12 215 0.0 0.0 0.00 0.00 0.00 80 1012.5
20260505080005 12 305 0.0 4.8 0.00 0.00 0.00 80 1012.5
20260505075505 12 233 0.0 4.8 0.00 0.00 0.00 79 1012.5
20260505075006 12 282 0.0 8.0 0.00 0.00 0.00 79 1012.5
20260505074505 12 217 0.0 8.0 0.00 0.00 0.00 80 1011.5
20260505073505 12 227 0.0 8.0 0.00 0.00 0.00 80 1011.5
20260505073005 12 215 1.6 8.0 0.00 0.00 0.00 80 1011.5
20260505072005 12 239 0.0 8.0 0.00 0.00 0.00 79 1011.5
20260505071506 13 215 0.0 8.0 0.00 0.00 0.00 79 1012.5
20260505071005 13 215 3.2 9.7 0.00 0.00 0.00 79 1012.5
20260505070506 13 200 1.6 9.7 0.00 0.00 0.00 78 1012.5
20260505065005 13 215 1.6 8.0 0.00 0.00 0.00 78 1012.5
20260505064005 13 215 1.6 8.0 0.00 0.00 0.00 77 1012.5
20260505063505 13 229 0.0 8.0 0.00 0.00 0.00 75 1012.5
20260505062505 14 198 0.0 3.2 0.00 0.00 0.00 76 1012.5
20260505061505 14 223 0.0 8.0 0.00 0.00 0.00 74 1012.5
20260505061005 15 220 0.0 8.0 0.00 0.00 0.00 75 1012.5
20260505060505 15 215 0.0 4.8 0.00 0.00 0.00 73 1012.5
20260505060005 15 240 0.0 8.0 0.00 0.00 0.00 73 1011.5
20260505055505 15 237 3.2 8.0 0.00 0.00 0.00 73 1011.5
20260505055006 15 236 0.0 8.0 0.00 0.00 0.00 72 1011.5
20260505054004 15 215 0.0 4.8 0.00 0.00 0.00 72 1011.5
20260505053504 16 215 0.0 4.8 0.00 0.00 0.00 71 1011.5
20260505052505 16 260 0.0 3.2 0.00 0.00 0.00 71 1011.5
20260505051505 16 238 0.0 0.0 0.00 0.00 0.00 71 1011.5
20260505050506 17 237 0.0 0.0 0.00 0.00 0.00 70 1011.5
20260505041505 18 215 0.0 3.2 0.00 0.00 0.00 71 1010.5
20260505041005 18 221 0.0 3.2 0.00 0.00 0.00 70 1010.5
20260505040505 18 218 0.0 3.2 0.00 0.00 0.00 70 1010.5
20260505035504 18 223 0.0 4.8 0.00 0.00 0.00 70 1010.5
20260505035008 18 215 0.0 4.8 0.00 0.00 0.00 70 1010.5
20260505034505 18 215 0.0 0.0 0.00 0.00 0.00 70 1010.5
20260505034006 18 228 0.0 0.0 0.00 0.00 0.00 69 1010.5
20260505033504 18 198 0.0 0.0 0.00 0.00 0.00 69 1010.5
20260505032505 19 215 0.0 0.0 0.00 0.00 0.00 69 1010.5
20260505032005 19 215 0.0 12.9 0.00 0.00 0.00 68 1010.5
20260505031504 19 215 0.0 12.9 0.00 0.00 0.00 68 1010.5
20260505031004 19 145 1.6 9.7 0.00 0.00 0.00 68 1010.5
20260505030005 19 215 0.0 12.9 0.00 0.00 0.00 67 1009.5
20260505025505 20 129 1.6 9.7 0.00 0.00 0.00 67 1009.5
20260505025005 20 188 0.0 9.7 0.00 0.00 0.00 67 1009.5
20260505024006 20 200 0.0 3.2 0.00 0.00 0.00 66 1010.5
20260505023504 20 192 0.0 8.0 0.00 0.00 0.00 67 1010.5
20260505023005 20 185 1.6 8.0 0.00 0.00 0.00 66 1009.5
20260505022504 20 248 0.0 0.0 0.00 0.00 0.00 65 1009.5
20260505022004 20 237 0.0 0.0 0.00 0.00 0.00 65 1009.5
20260505021505 20 224 0.0 0.0 0.00 0.00 0.00 65 1009.5
20260505021004 20 216 0.0 0.0 0.00 0.00 0.00 65 1009.5
20260505015504 20 224 0.0 4.8 0.00 0.00 0.00 64 1009.5
20260505014504 20 193 0.0 11.3 0.00 0.00 0.00 63 1010.5
20260505013004 20 150 3.2 14.5 0.00 0.00 0.00 63 1010.5
20260505012504 20 151 0.0 11.3 0.00 0.00 0.00 63 1010.5
20260505012004 20 242 0.0 8.0 0.00 0.00 0.00 63 1010.5
20260505011504 20 191 4.8 8.0 0.00 0.00 0.00 63 1010.5
20260505011004 20 226 1.6 11.3 0.00 0.00 0.00 62 1010.5
20260505010504 21 206 1.6 11.3 0.00 0.00 0.00 62 1010.5
20260505005504 21 140 1.6 9.7 0.00 0.00 0.00 62 1010.5
20260505005004 21 182 1.6 12.9 0.00 0.00 0.00 62 1010.5
20260505004504 21 165 0.0 12.9 0.00 0.00 0.00 61 1010.5
20260505003504 21 221 1.6 12.9 0.00 0.00 0.00 61 1010.5
20260505002505 21 170 1.6 4.8 0.00 0.00 0.00 60 1010.5
20260505001505 21 203 1.6 12.9 0.00 0.00 0.00 61 1010.5
20260505001004 21 151 1.6 8.0 0.00 0.00 0.00 61 1010.5
20260505000504 21 136 0.0 3.2 0.00 0.00 0.00 60 1010.5
20260505000004 21 258 0.0 8.0 0.00 0.00 0.00 60 1010.5
20260504235505 21 192 0.0 9.7 0.00 0.00 0.00 60 1010.5
20260504235004 21 136 1.6 12.9 0.00 0.00 0.00 59 1010.5
20260504234504 21 144 4.8 12.9 0.00 0.00 0.00 60 1010.5
20260504234004 21 299 0.0 8.0 0.00 0.00 0.00 60 1010.5
20260504233504 21 220 0.0 12.9 0.00 0.00 0.00 59 1010.5
20260504233004 21 178 1.6 12.9 0.00 0.00 0.00 59 1010.5
20260504232504 21 193 1.6 12.9 0.00 0.00 0.00 59 1010.5
20260504232004 21 222 1.6 12.9 0.00 0.00 0.00 59 1010.5
20260504231504 21 179 1.6 12.9 0.00 0.00 0.00 59 1010.5
20260504231004 21 136 6.4 12.9 0.00 0.00 0.00 59 1010.5
20260504230504 21 143 4.8 12.9 0.00 0.00 0.00 59 1010.5
20260504230004 21 221 0.0 9.7 0.00 0.00 0.00 59 1010.5
20260504225504 21 179 1.6 9.7 0.00 0.00 0.00 59 1010.5
20260504225004 21 123 3.2 9.7 0.00 0.00 0.00 59 1010.5
20260504224504 21 187 0.0 9.7 0.00 0.00 0.00 59 1010.5
20260504224004 21 222 0.0 11.3 0.00 0.00 0.00 59 1010.5
20260504223504 21 111 3.2 14.5 0.00 0.00 0.00 60 1010.5
20260504223004 21 188 4.8 14.5 0.00 0.00 0.00 60 1010.5
20260504222504 21 242 0.0 3.2 0.00 0.00 0.00 60 1010.5
20260504222005 21 257 0.0 3.2 0.00 0.00 0.00 60 1010.5
20260504221504 21 224 0.0 11.3 0.00 0.00 0.00 61 1010.5
20260504221004 20 236 1.6 11.3 0.00 0.00 0.00 62 1010.5
20260504220504 20 207 0.0 11.3 0.00 0.00 0.00 61 1010.5
20260504215504 20 198 0.0 12.9 0.00 0.00 0.00 61 1011.5
20260504215004 20 204 0.0 9.7 0.00 0.00 0.00 62 1011.5
20260504214504 20 215 1.6 3.2 0.00 0.00 0.00 64 1011.5
20260504214004 20 215 0.0 11.3 0.00 0.00 0.00 62 1011.5
20260504213503 20 222 3.2 12.9 0.00 0.00 0.00 63 1011.5
20260504212504 20 176 1.6 8.0 0.00 0.00 0.00 65 1011.5
20260504212004 19 257 0.0 3.2 0.00 0.00 0.00 64 1011.5
20260504211504 20 203 0.0 3.2 0.00 0.00 0.00 65 1012.5
20260504211004 19 211 0.0 3.2 0.00 0.00 0.00 67 1012.5
20260504210504 18 246 0.0 11.3 0.00 0.00 0.00 66 1012.5
20260504210004 18 155 0.0 11.3 0.00 0.00 0.00 69 1012.5
20260504205004 18 159 6.4 14.5 0.00 0.00 0.00 67 1012.5
20260504204503 18 198 3.2 19.3 0.00 0.00 0.00 67 1012.5
20260504203004 18 139 4.8 19.3 0.00 0.00 0.00 68 1012.5
20260504202505 18 216 4.8 19.3 0.00 0.00 0.00 69 1012.5
20260504202003 18 219 1.6 8.0 0.00 0.00 0.00 71 1012.5
20260504201504 17 250 0.0 9.7 0.00 0.00 0.00 70 1012.5
20260504200503 17 249 0.0 11.3 0.00 0.00 0.00 71 1012.5
20260504200004 17 191 1.6 11.3 0.00 0.00 0.00 71 1012.5
20260504195504 17 183 1.6 12.9 0.00 0.00 0.00 71 1012.5
20260504195004 17 267 4.8 12.9 0.00 0.00 0.00 72 1012.5
20260504194503 17 218 1.6 11.3 0.00 0.00 0.00 72 1012.5
20260504194004 17 218 0.0 14.5 0.00 0.00 0.00 73 1012.5
20260504193503 16 228 0.0 19.3 0.00 0.00 0.00 73 1012.5
20260504193007 16 181 9.7 19.3 0.00 0.00 0.00 73 1012.5
20260504192006 16 139 4.8 12.9 0.00 0.00 0.00 74 1012.5
20260504191507 16 290 0.0 16.1 0.00 0.00 0.00 74 1012.5
20260504191007 16 148 8.0 16.1 0.00 0.00 0.00 75 1012.5
20260504190007 15 221 3.2 12.9 0.00 0.00 0.00 75 1012.5
20260504185507 15 180 1.6 12.9 0.00 0.00 0.00 76 1012.5
20260504185007 15 215 1.6 12.9 0.00 0.00 0.00 76 1012.5
20260504184507 15 207 0.0 11.3 0.00 0.00 0.00 78 1012.5